,,Stat5,,Stat1,,Stat2,,Stat3,,Stat4,,Wind1,,Wind1,
time,status,PA1M_AVG,status,PR1M_SUM,status,RH1M_AVG,status,SR1M_AVG,status,TA1M_AVG,status,W1dAve1m,status,W1sAve1m,
2001-08-28, 00:00:00,VALID,916.732,VALID,0,VALID,94.5578,VALID,0,VALID,17.6926,VALID,17,VALID,0.173438,
2001-08-28, 00:01:00,VALID,916.734,VALID,0,VALID,94.6544,VALID,-0.0169808,VALID,17.7019,VALID,17,VALID,0.31871,
2001-08-28, 00:02:00,VALID,916.722,VALID,0,VALID,94.6824,VALID,-0.0679233,VALID,17.7025,VALID,17,VALID,0.500781,
2001-08-28, 00:03:00,VALID,916.718,VALID,0,VALID,94.6468,VALID,-0.0339617,VALID,17.6603,VALID,17,VALID,0.186699,
2001-08-28, 00:04:00,VALID,916.716,VALID,0,VALID,94.6824,VALID,-0.0339617,VALID,17.6313,VALID,29,VALID,0.403372,
2001-08-28, 00:05:00,VALID,916.704,VALID,0,VALID,94.8274,VALID,0,VALID,17.5884,VALID,39,VALID,0.288651,
2001-08-28, 00:06:00,VALID,916.706,VALID,0,VALID,94.8579,VALID,0,VALID,17.5727,VALID,38,VALID,0.00420673,
2001-08-28, 00:07:00,VALID,916.691,VALID,0,VALID,94.9571,VALID,-0.0169808,VALID,17.5465,VALID,38,VALID,0.0958984,
2001-08-28, 00:08:00,VALID,916.685,VALID,0,VALID,95.0613,VALID,-0.0339617,VALID,17.5568,VALID,41,VALID,0.162584,
2001-08-28, 00:09:00,VALID,916.686,VALID,0,VALID,94.9761,VALID,-0.0169808,VALID,17.5499,VALID,62,VALID,0.0112179,
2001-08-28, 00:10:00,VALID,916.694,VALID,0,VALID,94.924,VALID,-0.0169808,VALID,17.5564,VALID,180,VALID,0.31851,
2001-08-28, 00:11:00,VALID,916.679,VALID,0,VALID,94.6913,VALID,-0.0169808,VALID,17.56,VALID,184,VALID,0.0101351,
2001-08-28, 00:12:00,VALID,916.644,VALID,0,VALID,94.4945,VALID,-0.0169808,VALID,17.5725,VALID,186,VALID,0.0388622,
2001-08-28, 00:13:00,VALID,916.644,VALID,0,VALID,94.4688,VALID,-0.0169808,VALID,17.5854,VALID,187,VALID,0,
2001-08-28, 00:14:00,VALID,916.625,VALID,0,VALID,94.4268,VALID,-0.0169808,VALID,17.6343,VALID,210,VALID,0.0243056,
2001-08-28, 00:15:00,VALID,916.625,VALID,0,VALID,94.4128,VALID,-0.0169808,VALID,17.6534,VALID,211,VALID,0.0010016,
2001-08-28, 00:16:00,VALID,916.611,VALID,0,VALID,94.4395,VALID,-0.0509425,VALID,17.6698,VALID,253,VALID,0.194696,
2001-08-28, 00:17:00,VALID,916.578,VALID,0,VALID,94.5018,VALID,-0.0849042,VALID,17.6862,VALID,16,VALID,0.966005,
2001-08-28, 00:18:00,VALID,916.555,VALID,0,VALID,94.3823,VALID,-0.0849042,VALID,17.6929,VALID,23,VALID,0.834991,
2001-08-28, 00:19:00,VALID,916.523,VALID,0,VALID,94.3289,VALID,-0.0339617,VALID,17.6795,VALID,10,VALID,0.76213,
2001-08-28, 00:20:00,VALID,916.514,VALID,0,VALID,94.0326,VALID,-0.0679233,VALID,17.6896,VALID,14,VALID,0.229307,
2001-08-28, 00:21:00,VALID,916.494,VALID,0,VALID,93.5265,VALID,0,VALID,17.7122,VALID,6,VALID,0.00959821,
2001-08-28, 00:22:00,VALID,916.489,VALID,0,VALID,93.4324,VALID,-0.0679233,VALID,17.7671,VALID,216,VALID,0.277232,
2001-08-28, 00:23:00,VALID,916.505,VALID,0,VALID,93.3701,VALID,-0.0679233,VALID,17.8056,VALID,188,VALID,0.181345,
2001-08-28, 00:24:00,VALID,916.512,VALID,0,VALID,93.0306,VALID,-0.0169808,VALID,17.8315,VALID,22,VALID,0.190321,
2001-08-28, 00:25:00,VALID,916.489,VALID,0,VALID,92.7178,VALID,-0.0509425,VALID,17.8797,VALID,18,VALID,0.0148026,
2001-08-28, 00:26:00,VALID,916.485,VALID,0,VALID,92.3986,VALID,-0.0339617,VALID,17.9186,VALID,19,VALID,0.240385,
2001-08-28, 00:27:00,VALID,916.476,VALID,0,VALID,92.1341,VALID,-0.0339617,VALID,17.9482,VALID,41,VALID,0.342969,
2001-08-28, 00:28:00,VALID,916.473,VALID,0,VALID,92.1773,VALID,-0.0339617,VALID,17.9475,VALID,22,VALID,0.530357,
2001-08-28, 00:29:00,VALID,916.451,VALID,0,VALID,92.5652,VALID,-0.0169808,VALID,17.9343,VALID,20,VALID,0.447213,
2001-08-28, 00:30:00,VALID,916.445,VALID,0,VALID,92.803,VALID,-0.0849042,VALID,17.8956,VALID,18,VALID,0.689798,
2001-08-28, 00:31:00,VALID,916.416,VALID,0,VALID,92.9403,VALID,-0.0509425,VALID,17.8603,VALID,11,VALID,0.696429,
2001-08-28, 00:32:00,VALID,916.407,VALID,0,VALID,92.9225,VALID,-0.0679233,VALID,17.8342,VALID,19,VALID,0.835938,
2001-08-28, 00:33:00,VALID,916.381,VALID,0,VALID,92.8297,VALID,-0.0509425,VALID,17.8442,VALID,18,VALID,0.747889,
2001-08-28, 00:34:00,VALID,916.362,VALID,0,VALID,92.7521,VALID,-0.0169808,VALID,17.8605,VALID,21,VALID,0.923725,
2001-08-28, 00:35:00,VALID,916.337,VALID,0,VALID,92.5893,VALID,-0.0679233,VALID,17.87,VALID,15,VALID,1.22545,
2001-08-28, 00:36:00,VALID,916.3,VALID,0,VALID,91.9497,VALID,-0.0849042,VALID,17.915,VALID,17,VALID,1.32853,
2001-08-28, 00:37:00,VALID,916.274,VALID,0,VALID,91.7018,VALID,-0.0339617,VALID,17.9503,VALID,15,VALID,0.996922,
2001-08-28, 00:38:00,VALID,916.234,VALID,0,VALID,91.703,VALID,-0.0169808,VALID,17.977,VALID,17,VALID,1.2513,
2001-08-28, 00:39:00,VALID,916.207,VALID,0,VALID,91.8366,VALID,-0.0339617,VALID,17.983,VALID,20,VALID,1.23006,
2001-08-28, 00:40:00,VALID,916.197,VALID,0,VALID,91.7463,VALID,-0.0169808,VALID,17.9729,VALID,14,VALID,1.20292,
2001-08-28, 00:41:00,VALID,916.17,VALID,0,VALID,91.6865,VALID,-0.0509425,VALID,17.9828,VALID,16,VALID,1.06602,
2001-08-28, 00:42:00,VALID,916.146,VALID,0,VALID,91.4563,VALID,-0.0339617,VALID,17.9961,VALID,10,VALID,1.50112,
2001-08-28, 00:43:00,VALID,916.109,VALID,0,VALID,91.2707,VALID,-0.0169808,VALID,18.0282,VALID,8,VALID,1.23142,
2001-08-28, 00:44:00,VALID,916.085,VALID,0,VALID,90.9591,VALID,-0.0509425,VALID,18.0379,VALID,19,VALID,1.12293,
2001-08-28, 00:45:00,VALID,916.076,VALID,0,VALID,90.8968,VALID,-0.0169808,VALID,18.0665,VALID,13,VALID,1.12746,
2001-08-28, 00:46:00,VALID,916.074,VALID,0,VALID,90.757,VALID,-0.0169808,VALID,18.0799,VALID,355,VALID,0.985176,
2001-08-28, 00:47:00,VALID,916.064,VALID,0,VALID,89.6964,VALID,0,VALID,18.17,VALID,337,VALID,0.92652,
2001-08-28, 00:48:00,VALID,916.048,VALID,0,VALID,89.6583,VALID,-0.0509425,VALID,18.2443,VALID,13,VALID,1.24959,
2001-08-28, 00:49:00,VALID,916.026,VALID,0,VALID,89.7842,VALID,-0.0169808,VALID,18.2865,VALID,18,VALID,1.4933,
2001-08-28, 00:50:00,VALID,916.016,VALID,0,VALID,90.1173,VALID,-0.0509425,VALID,18.2704,VALID,8,VALID,1.07071,
2001-08-28, 00:51:00,VALID,916.021,VALID,0,VALID,90.3653,VALID,-0.0509425,VALID,18.2413,VALID,8,VALID,0.859375,
2001-08-28, 00:52:00,VALID,916.018,VALID,0,VALID,90.5942,VALID,-0.0339617,VALID,18.212,VALID,7,VALID,0.977214,
2001-08-28, 00:53:00,VALID,916.005,VALID,0,VALID,90.8752,VALID,-0.0339617,VALID,18.1931,VALID,4,VALID,0.844984,
2001-08-28, 00:54:00,VALID,915.998,VALID,0,VALID,90.8409,VALID,-0.0509425,VALID,18.1438,VALID,352,VALID,0.994191,
2001-08-28, 00:55:00,VALID,915.979,VALID,0,VALID,90.4772,VALID,0,VALID,18.1504,VALID,340,VALID,0.941992,
2001-08-28, 00:56:00,VALID,915.968,VALID,0,VALID,90.1987,VALID,-0.0169808,VALID,18.1991,VALID,2,VALID,1.08951,
2001-08-28, 00:57:00,VALID,915.954,VALID,0,VALID,90.1301,VALID,-0.0679233,VALID,18.2351,VALID,9,VALID,1.22677,
2001-08-28, 00:58:00,VALID,915.938,VALID,0,VALID,90.0627,VALID,0,VALID,18.2404,VALID,355,VALID,0.963925,
2001-08-28, 00:59:00,VALID,915.919,VALID,0,VALID,89.9037,VALID,-0.0339617,VALID,18.2533,VALID,7,VALID,1.20826,
2001-08-28, 01:00:00,VALID,915.905,VALID,0,VALID,89.7473,VALID,0,VALID,18.2821,VALID,359,VALID,1.25741,
2001-08-28, 01:01:00,VALID,915.899,VALID,0,VALID,89.7905,VALID,0,VALID,18.3013,VALID,1,VALID,1.23649,
2001-08-28, 01:02:00,VALID,915.879,VALID,0,VALID,89.6214,VALID,0,VALID,18.3177,VALID,6,VALID,1.10609,
2001-08-28, 01:03:00,VALID,915.87,VALID,0,VALID,89.7524,VALID,0.0339617,VALID,18.3204,VALID,351,VALID,1,
2001-08-28, 01:04:00,VALID,915.877,VALID,0,VALID,89.5629,VALID,0.0679233,VALID,18.3075,VALID,359,VALID,1.07151,
2001-08-28, 01:05:00,VALID,915.873,VALID,0,VALID,89.4256,VALID,0.0169808,VALID,18.3271,VALID,345,VALID,0.933949,
2001-08-28, 01:06:00,VALID,915.875,VALID,0,VALID,89.5667,VALID,0.0509425,VALID,18.34,VALID,355,VALID,1.074,
2001-08-28, 01:07:00,VALID,915.86,VALID,0,VALID,89.8325,VALID,0.0169808,VALID,18.3301,VALID,4,VALID,1.32566,
2001-08-28, 01:08:00,VALID,915.856,VALID,0,VALID,89.7333,VALID,0.0169808,VALID,18.311,VALID,353,VALID,1.11579,
2001-08-28, 01:09:00,VALID,915.851,VALID,0,VALID,89.6926,VALID,0,VALID,18.314,VALID,352,VALID,1.2416,
2001-08-28, 01:10:00,VALID,915.839,VALID,0,VALID,89.6621,VALID,0,VALID,18.3135,VALID,343,VALID,1.05357,
2001-08-28, 01:11:00,VALID,915.839,VALID,0,VALID,90.0716,VALID,0.0169808,VALID,18.3137,VALID,355,VALID,0.629223,
2001-08-28, 01:12:00,VALID,915.83,VALID,0,VALID,90.6018,VALID,0,VALID,18.2815,VALID,325,VALID,0.70841,
2001-08-28, 01:13:00,VALID,915.852,VALID,0,VALID,91.5377,VALID,0,VALID,18.2658,VALID,360,VALID,0.604911,
2001-08-28, 01:14:00,VALID,915.834,VALID,0,VALID,91.5721,VALID,0,VALID,18.236,VALID,315,VALID,1.0621,
2001-08-28, 01:15:00,VALID,915.831,VALID,0,VALID,91.9561,VALID,0.0169808,VALID,18.2203,VALID,351,VALID,0.664907,
2001-08-28, 01:16:00,VALID,915.81,VALID,0,VALID,91.1982,VALID,0,VALID,18.1844,VALID,360,VALID,1.42969,
2001-08-28, 01:17:00,VALID,915.818,VALID,0,VALID,90.6959,VALID,0.0169808,VALID,18.2067,VALID,331,VALID,0.704911,
2001-08-28, 01:18:00,VALID,915.815,VALID,0,VALID,90.8142,VALID,0,VALID,18.2466,VALID,340,VALID,0.430489,
2001-08-28, 01:19:00,VALID,915.819,VALID,0,VALID,90.0207,VALID,0.0169808,VALID,18.2559,VALID,7,VALID,1.11742,
2001-08-28, 01:20:00,VALID,915.808,VALID,0,VALID,90.7341,VALID,0.0339617,VALID,18.2914,VALID,325,VALID,0.569661,
2001-08-28, 01:21:00,VALID,915.81,VALID,0,VALID,91.7158,VALID,0,VALID,18.2651,VALID,274,VALID,0.260896,
2001-08-28, 01:22:00,VALID,915.793,VALID,0,VALID,91.9802,VALID,0,VALID,18.2432,VALID,335,VALID,0.386619,
2001-08-28, 01:23:00,VALID,915.791,VALID,0,VALID,91.2198,VALID,0.0169808,VALID,18.1945,VALID,2,VALID,0.571484,
2001-08-28, 01:24:00,VALID,915.769,VALID,0,VALID,91.1868,VALID,0,VALID,18.2042,VALID,345,VALID,0.53058,
2001-08-28, 01:25:00,VALID,915.751,VALID,0,VALID,90.8282,VALID,0.0339617,VALID,18.2201,VALID,3,VALID,0.535684,
2001-08-28, 01:26:00,VALID,915.736,VALID,0,VALID,90.7277,VALID,0.0169808,VALID,18.233,VALID,354,VALID,0.649816,
2001-08-28, 01:27:00,VALID,915.745,VALID,0,VALID,90.8294,VALID,0,VALID,18.2367,VALID,320,VALID,0.453795,
2001-08-28, 01:28:00,VALID,915.729,VALID,0,VALID,90.5878,VALID,0.0339617,VALID,18.236,VALID,341,VALID,0.583333,
2001-08-28, 01:29:00,VALID,915.712,VALID,0,VALID,89.5871,VALID,0.0169808,VALID,18.2556,VALID,353,VALID,1.02365,
2001-08-28, 01:30:00,VALID,915.716,VALID,0,VALID,88.9678,VALID,-0.0679233,VALID,18.3147,VALID,339,VALID,0.700041,
2001-08-28, 01:31:00,VALID,915.734,VALID,0,VALID,89.184,VALID,-0.0679233,VALID,18.3603,VALID,270,VALID,0.36942,
2001-08-28, 01:32:00,VALID,915.734,VALID,0,VALID,89.7371,VALID,-0.0849042,VALID,18.3663,VALID,238,VALID,0.178285,
2001-08-28, 01:33:00,VALID,915.719,VALID,0,VALID,90.4925,VALID,-0.0679233,VALID,18.3472,VALID,240,VALID,0.0788352,
2001-08-28, 01:34:00,VALID,915.711,VALID,0,VALID,90.6934,VALID,-0.0679233,VALID,18.3405,VALID,315,VALID,0.344184,
2001-08-28, 01:35:00,VALID,915.674,VALID,0,VALID,89.1306,VALID,-0.0679233,VALID,18.3375,VALID,349,VALID,0.920436,
2001-08-28, 01:36:00,VALID,915.681,VALID,0,VALID,89.9673,VALID,-0.101885,VALID,18.3696,VALID,293,VALID,0.380809,
2001-08-28, 01:37:00,VALID,915.665,VALID,0,VALID,89.8439,VALID,-0.101885,VALID,18.3571,VALID,334,VALID,0.666406,
2001-08-28, 01:38:00,VALID,915.644,VALID,0,VALID,88.8877,VALID,-0.0679233,VALID,18.3601,VALID,2,VALID,1.14911,
2001-08-28, 01:39:00,VALID,915.628,VALID,0,VALID,88.463,VALID,-0.101885,VALID,18.415,VALID,348,VALID,0.927576,
2001-08-28, 01:40:00,VALID,915.614,VALID,0,VALID,88.744,VALID,-0.101885,VALID,18.4473,VALID,280,VALID,0.808364,
2001-08-28, 01:41:00,VALID,915.602,VALID,0,VALID,89.02,VALID,-0.0849042,VALID,18.4378,VALID,311,VALID,0.519866,
2001-08-28, 01:42:00,VALID,915.587,VALID,0,VALID,89.2323,VALID,-0.101885,VALID,18.4378,VALID,6,VALID,0.896635,
2001-08-28, 01:43:00,VALID,915.565,VALID,0,VALID,88.3257,VALID,-0.0679233,VALID,18.4341,VALID,3,VALID,1.07475,
2001-08-28, 01:44:00,VALID,915.546,VALID,0,VALID,88.9665,VALID,-0.0679233,VALID,18.4505,VALID,356,VALID,0.844161,
2001-08-28, 01:45:00,VALID,915.541,VALID,0,VALID,89.0606,VALID,-0.0849042,VALID,18.4249,VALID,8,VALID,0.878795,
2001-08-28, 01:46:00,VALID,915.531,VALID,0,VALID,88.9767,VALID,-0.0849042,VALID,18.3922,VALID,9,VALID,1.0647,
2001-08-28, 01:47:00,VALID,915.505,VALID,0,VALID,88.2366,VALID,-0.0679233,VALID,18.3931,VALID,12,VALID,1.69389,
2001-08-28, 01:48:00,VALID,915.48,VALID,0,VALID,88.1324,VALID,-0.0849042,VALID,18.4217,VALID,14,VALID,1.42535,
2001-08-28, 01:49:00,VALID,915.478,VALID,0,VALID,88.1133,VALID,-0.0849042,VALID,18.4215,VALID,359,VALID,0.928043,
2001-08-28, 01:50:00,VALID,915.469,VALID,0,VALID,87.8882,VALID,-0.0849042,VALID,18.4445,VALID,358,VALID,0.726963,
2001-08-28, 01:51:00,VALID,915.476,VALID,0,VALID,88.5024,VALID,-0.0679233,VALID,18.4309,VALID,7,VALID,1.05273,
2001-08-28, 01:52:00,VALID,915.459,VALID,0,VALID,88.7033,VALID,-0.0849042,VALID,18.4118,VALID,1,VALID,0.5875,
2001-08-28, 01:53:00,VALID,915.438,VALID,0,VALID,88.1781,VALID,-0.101885,VALID,18.3857,VALID,3,VALID,0.527872,
2001-08-28, 01:54:00,VALID,915.44,VALID,0,VALID,88.2939,VALID,-0.0339617,VALID,18.3887,VALID,346,VALID,0.534237,
2001-08-28, 01:55:00,VALID,915.432,VALID,0,VALID,89.2323,VALID,-0.0849042,VALID,18.3986,VALID,8,VALID,0.17567,
2001-08-28, 01:56:00,VALID,915.432,VALID,0,VALID,89.2616,VALID,-0.0849042,VALID,18.3926,VALID,339,VALID,0.133013,
2001-08-28, 01:57:00,VALID,915.416,VALID,0,VALID,90.5573,VALID,-0.0509425,VALID,18.373,VALID,294,VALID,0.377534,
2001-08-28, 01:58:00,VALID,915.414,VALID,0,VALID,91.0164,VALID,-0.0679233,VALID,18.3117,VALID,304,VALID,0.114515,
2001-08-28, 01:59:00,VALID,915.4,VALID,0,VALID,91.614,VALID,-0.0339617,VALID,18.2565,VALID,344,VALID,0.31875,
2001-08-28, 02:00:00,VALID,915.389,VALID,0,VALID,91.7666,VALID,-0.0679233,VALID,18.2277,VALID,343,VALID,0.14984,
2001-08-28, 02:01:00,VALID,915.384,VALID,0,VALID,91.9739,VALID,-0.0849042,VALID,18.1823,VALID,305,VALID,0.259943,
2001-08-28, 02:02:00,VALID,915.379,VALID,0,VALID,91.9332,VALID,-0.0679233,VALID,18.1338,VALID,288,VALID,0.0112847,
2001-08-28, 02:03:00,VALID,915.388,VALID,0,VALID,92.129,VALID,-0.0509425,VALID,18.108,VALID,288,VALID,0,
2001-08-28, 02:04:00,VALID,915.388,VALID,0,VALID,92.4278,VALID,-0.0509425,VALID,18.082,VALID,297,VALID,0.0190304,
2001-08-28, 02:05:00,VALID,915.394,VALID,0,VALID,92.5092,VALID,-0.0339617,VALID,18.0531,VALID,352,VALID,0.312717,
2001-08-28, 02:06:00,VALID,915.394,VALID,0,VALID,92.1608,VALID,-0.0509425,VALID,18.0337,VALID,356,VALID,0.749777,
2001-08-28, 02:07:00,VALID,915.379,VALID,0,VALID,91.7806,VALID,-0.0679233,VALID,18.0275,VALID,15,VALID,0.513725,
2001-08-28, 02:08:00,VALID,915.386,VALID,0,VALID,92.1049,VALID,-0.0509425,VALID,18.037,VALID,347,VALID,0.225414,
2001-08-28, 02:09:00,VALID,915.393,VALID,0,VALID,91.567,VALID,-0.0679233,VALID,18.0208,VALID,348,VALID,0.276116,
2001-08-28, 02:10:00,VALID,915.409,VALID,0,VALID,90.9223,VALID,-0.0509425,VALID,18.0174,VALID,5,VALID,0.205329,
2001-08-28, 02:11:00,VALID,915.399,VALID,0,VALID,90.7519,VALID,-0.0849042,VALID,18.0536,VALID,5,VALID,0.0456081,
2001-08-28, 02:12:00,VALID,915.4,VALID,0,VALID,90.9312,VALID,-0.0509425,VALID,18.0822,VALID,5,VALID,0,
2001-08-28, 02:13:00,VALID,915.405,VALID,0,VALID,90.5675,VALID,-0.0339617,VALID,18.0628,VALID,5,VALID,0.000892857,
2001-08-28, 02:14:00,VALID,915.397,VALID,0,VALID,91.3114,VALID,-0.0509425,VALID,18.0856,VALID,5,VALID,0.0130208,
2001-08-28, 02:15:00,VALID,915.399,VALID,0,VALID,91.1156,VALID,-0.0679233,VALID,18.1018,VALID,9,VALID,0.113636,
2001-08-28, 02:16:00,VALID,915.388,VALID,0,VALID,91.4398,VALID,-0.0339617,VALID,18.1016,VALID,12,VALID,0.11046,
2001-08-28, 02:17:00,VALID,915.369,VALID,0,VALID,90.6718,VALID,-0.0679233,VALID,18.0919,VALID,6,VALID,0.421464,
2001-08-28, 02:18:00,VALID,915.362,VALID,0,VALID,90.6184,VALID,-0.0509425,VALID,18.0755,VALID,14,VALID,0.867989,
2001-08-28, 02:19:00,VALID,915.332,VALID,0,VALID,90.879,VALID,-0.0339617,VALID,18.0658,VALID,21,VALID,1.0748,
2001-08-28, 02:20:00,VALID,915.307,VALID,0,VALID,90.6438,VALID,-0.0509425,VALID,18.0566,VALID,16,VALID,0.903571,
2001-08-28, 02:21:00,VALID,915.297,VALID,0,VALID,90.4441,VALID,-0.0339617,VALID,18.0531,VALID,14,VALID,1.00127,
2001-08-28, 02:22:00,VALID,915.286,VALID,0,VALID,90.453,VALID,-0.0339617,VALID,18.0561,VALID,19,VALID,0.651884,
2001-08-28, 02:23:00,VALID,915.283,VALID,0,VALID,90.1148,VALID,-0.0849042,VALID,18.0732,VALID,14,VALID,0.74442,
2001-08-28, 02:24:00,VALID,915.285,VALID,0,VALID,90.3195,VALID,-0.0679233,VALID,18.0893,VALID,354,VALID,0.60016,
2001-08-28, 02:25:00,VALID,915.284,VALID,0,VALID,90.256,VALID,-0.0679233,VALID,18.0856,VALID,344,VALID,0.637247,
2001-08-28, 02:26:00,VALID,915.278,VALID,0,VALID,89.8236,VALID,-0.0509425,VALID,18.1117,VALID,354,VALID,0.223067,
2001-08-28, 02:27:00,VALID,915.277,VALID,0,VALID,90.1173,VALID,-0.0679233,VALID,18.1371,VALID,1,VALID,0.510491,
2001-08-28, 02:28:00,VALID,915.267,VALID,0,VALID,90.2343,VALID,-0.0339617,VALID,18.1438,VALID,17,VALID,0.740585,
2001-08-28, 02:29:00,VALID,915.257,VALID,0,VALID,90.2572,VALID,-0.0169808,VALID,18.1016,VALID,6,VALID,0.799006,
2001-08-28, 02:30:00,VALID,915.237,VALID,0,VALID,90.4912,VALID,0.0169808,VALID,18.0815,VALID,12,VALID,0.860677,
2001-08-28, 02:31:00,VALID,915.23,VALID,0,VALID,89.9584,VALID,0.0509425,VALID,18.0619,VALID,356,VALID,0.901933,
2001-08-28, 02:32:00,VALID,915.243,VALID,0,VALID,89.1903,VALID,0.0509425,VALID,18.1136,VALID,13,VALID,0.823317,
2001-08-28, 02:33:00,VALID,915.242,VALID,0,VALID,89.568,VALID,0.0509425,VALID,18.156,VALID,24,VALID,0.864062,
2001-08-28, 02:34:00,VALID,915.235,VALID,0,VALID,89.3874,VALID,0.0339617,VALID,18.1518,VALID,4,VALID,0.862277,
2001-08-28, 02:35:00,VALID,915.239,VALID,0,VALID,90.0805,VALID,0.0849042,VALID,18.1521,VALID,235,VALID,0.417652,
2001-08-28, 02:36:00,VALID,915.236,VALID,0,VALID,89.8109,VALID,0.0339617,VALID,18.1366,VALID,163,VALID,0.157169,
2001-08-28, 02:37:00,VALID,915.235,VALID,0,VALID,90.3246,VALID,0.0169808,VALID,18.1302,VALID,154,VALID,0.252455,
2001-08-28, 02:38:00,VALID,915.232,VALID,0,VALID,90.4798,VALID,0.0509425,VALID,18.1265,VALID,154,VALID,0.0282452,
2001-08-28, 02:39:00,VALID,915.226,VALID,0,VALID,90.1631,VALID,0.0339617,VALID,18.091,VALID,161,VALID,0.105574,
2001-08-28, 02:40:00,VALID,915.232,VALID,0,VALID,90.2076,VALID,0.0339617,VALID,18.0875,VALID,193,VALID,0.385485,
2001-08-28, 02:41:00,VALID,915.249,VALID,0,VALID,90.256,VALID,0.0169808,VALID,18.078,VALID,181,VALID,0.691295,
2001-08-28, 02:42:00,VALID,915.251,VALID,0,VALID,90.467,VALID,0.0509425,VALID,18.0621,VALID,182,VALID,0.571915,
2001-08-28, 02:43:00,VALID,915.239,VALID,0,VALID,90.6323,VALID,0.0339617,VALID,18.0266,VALID,204,VALID,0.252604,
2001-08-28, 02:44:00,VALID,915.224,VALID,0,VALID,90.9057,VALID,0.0339617,VALID,18.0008,VALID,187,VALID,0.0373264,
2001-08-28, 02:45:00,VALID,915.196,VALID,0,VALID,91.0685,VALID,-0.0339617,VALID,17.9724,VALID,191,VALID,0.141447,
2001-08-28, 02:46:00,VALID,915.171,VALID,0,VALID,91.1359,VALID,-0.0849042,VALID,17.9468,VALID,206,VALID,0.0430689,
2001-08-28, 02:47:00,VALID,915.149,VALID,0,VALID,91.2542,VALID,-0.0339617,VALID,17.9346,VALID,206,VALID,0,
2001-08-28, 02:48:00,VALID,915.134,VALID,0,VALID,91.5428,VALID,-0.0679233,VALID,17.9051,VALID,206,VALID,0.034375,
2001-08-28, 02:49:00,VALID,915.12,VALID,0,VALID,92.096,VALID,-0.0679233,VALID,17.873,VALID,206,VALID,0.228252,
2001-08-28, 02:50:00,VALID,915.084,VALID,0,VALID,92.4762,VALID,-0.0169808,VALID,17.814,VALID,139,VALID,0.449678,
2001-08-28, 02:51:00,VALID,915.082,VALID,0,VALID,92.6949,VALID,-0.0169808,VALID,17.7404,VALID,51,VALID,0.173214,
2001-08-28, 02:52:00,VALID,915.096,VALID,0,VALID,92.9072,VALID,-0.0679233,VALID,17.6952,VALID,137,VALID,0.275841,
2001-08-28, 02:53:00,VALID,915.118,VALID,0,VALID,93.2226,VALID,-0.0509425,VALID,17.6564,VALID,187,VALID,0.54962,
2001-08-28, 02:54:00,VALID,915.132,VALID,0,VALID,93.3294,VALID,-0.0339617,VALID,17.6343,VALID,159,VALID,0.741571,
2001-08-28, 02:55:00,VALID,915.147,VALID,0,VALID,93.4846,VALID,-0.0849042,VALID,17.5919,VALID,168,VALID,0.500893,
2001-08-28, 02:56:00,VALID,915.14,VALID,0,VALID,93.7071,VALID,-0.0509425,VALID,17.5824,VALID,170,VALID,0.371995,
2001-08-28, 02:57:00,VALID,915.14,VALID,0,VALID,93.9907,VALID,-0.0679233,VALID,17.5469,VALID,171,VALID,0.220881,
2001-08-28, 02:58:00,VALID,915.114,VALID,0,VALID,94.2005,VALID,-0.0509425,VALID,17.5245,VALID,169,VALID,0.173611,
2001-08-28, 02:59:00,VALID,915.088,VALID,0,VALID,94.3111,VALID,-0.0849042,VALID,17.5084,VALID,190,VALID,0.555304,
2001-08-28, 03:00:00,VALID,915.08,VALID,0,VALID,94.3162,VALID,-0.0509425,VALID,17.501,VALID,316,VALID,0.235377,
2001-08-28, 03:01:00,VALID,915.089,VALID,0,VALID,94.1483,VALID,-0.0679233,VALID,17.469,VALID,9,VALID,0,
2001-08-28, 03:02:00,VALID,915.101,VALID,0,VALID,94.156,VALID,-0.0169808,VALID,17.4374,VALID,49,VALID,0.266741,
2001-08-28, 03:03:00,VALID,915.109,VALID,0,VALID,94.4561,VALID,-0.0679233,VALID,17.3913,VALID,76,VALID,0.250633,
2001-08-28, 03:04:00,VALID,915.119,VALID,0,VALID,94.4599,VALID,-0.0169808,VALID,17.3881,VALID,134,VALID,0.310432,
2001-08-28, 03:05:00,VALID,915.142,VALID,0,VALID,94.5311,VALID,-0.0509425,VALID,17.3624,VALID,123,VALID,0.65067,
2001-08-28, 03:06:00,VALID,915.135,VALID,0,VALID,94.835,VALID,-0.0509425,VALID,17.3659,VALID,127,VALID,0.485978,
2001-08-28, 03:07:00,VALID,915.141,VALID,0,VALID,94.6938,VALID,-0.0849042,VALID,17.3883,VALID,128,VALID,0,
2001-08-28, 03:08:00,VALID,915.116,VALID,0,VALID,94.5235,VALID,-0.0339617,VALID,17.4175,VALID,166,VALID,0,
2001-08-28, 03:09:00,VALID,915.099,VALID,0,VALID,94.3213,VALID,-0.0679233,VALID,17.4141,VALID,171,VALID,0,
2001-08-28, 03:10:00,VALID,915.081,VALID,0,VALID,94.3009,VALID,-0.0339617,VALID,17.4076,VALID,171,VALID,0,
2001-08-28, 03:11:00,VALID,915.065,VALID,0,VALID,94.2259,VALID,-0.0849042,VALID,17.3891,VALID,171,VALID,0,
2001-08-28, 03:12:00,VALID,915.04,VALID,0,VALID,94.2132,VALID,-0.0679233,VALID,17.3377,VALID,171,VALID,0,
2001-08-28, 03:13:00,VALID,915.028,VALID,0,VALID,94.6277,VALID,-0.0849042,VALID,17.3145,VALID,185,VALID,0.210938,
2001-08-28, 03:14:00,VALID,914.999,VALID,0,VALID,94.7218,VALID,-0.0509425,VALID,17.3405,VALID,163,VALID,0.0104167,
2001-08-28, 03:15:00,VALID,914.994,VALID,0,VALID,94.6036,VALID,-0.0679233,VALID,17.3792,VALID,161,VALID,0,
2001-08-28, 03:16:00,VALID,914.998,VALID,0,VALID,94.2246,VALID,-0.0849042,VALID,17.3885,VALID,146,VALID,0.108705,
2001-08-28, 03:17:00,VALID,914.99,VALID,0,VALID,94.086,VALID,-0.0849042,VALID,17.3859,VALID,117,VALID,0.0194257,
2001-08-28, 03:18:00,VALID,914.972,VALID,0,VALID,94.1038,VALID,-0.0509425,VALID,17.382,VALID,91,VALID,0,
2001-08-28, 03:19:00,VALID,914.973,VALID,0,VALID,93.9118,VALID,-0.0849042,VALID,17.376,VALID,44,VALID,0,
2001-08-28, 03:20:00,VALID,914.951,VALID,0,VALID,93.8978,VALID,-0.0849042,VALID,17.325,VALID,33,VALID,0,
2001-08-28, 03:21:00,VALID,914.941,VALID,0,VALID,94.1598,VALID,-0.0849042,VALID,17.2598,VALID,353,VALID,0.263725,
2001-08-28, 03:22:00,VALID,914.949,VALID,0,VALID,94.409,VALID,-0.101885,VALID,17.2826,VALID,243,VALID,0.422697,
2001-08-28, 03:23:00,VALID,914.955,VALID,0,VALID,94.203,VALID,-0.0849042,VALID,17.3345,VALID,272,VALID,0.00357143,
2001-08-28, 03:24:00,VALID,914.948,VALID,0,VALID,94.1026,VALID,-0.0849042,VALID,17.3508,VALID,323,VALID,0.0068109,
2001-08-28, 03:25:00,VALID,914.963,VALID,0,VALID,94.0186,VALID,-0.0509425,VALID,17.3179,VALID,353,VALID,0.0667614,
2001-08-28, 03:26:00,VALID,914.963,VALID,0,VALID,93.9983,VALID,-0.101885,VALID,17.2988,VALID,354,VALID,0.100477,
2001-08-28, 03:27:00,VALID,914.971,VALID,0,VALID,94.0491,VALID,-0.0849042,VALID,17.2992,VALID,354,VALID,0,
2001-08-28, 03:28:00,VALID,914.948,VALID,0,VALID,93.7923,VALID,-0.0849042,VALID,17.3052,VALID,354,VALID,0,
2001-08-28, 03:29:00,VALID,914.943,VALID,0,VALID,93.674,VALID,-0.0509425,VALID,17.3084,VALID,47,VALID,0.250586,
2001-08-28, 03:30:00,VALID,914.93,VALID,0,VALID,93.7274,VALID,0,VALID,17.3203,VALID,29,VALID,0.263839,
2001-08-28, 03:31:00,VALID,914.921,VALID,0,VALID,93.2315,VALID,0.0509425,VALID,17.3297,VALID,355,VALID,0.0202703,